Retour au catalogue

STARLINK-35019

ActifCommunicationsVLEO
NORAD 65513·PAYLOAD·🇺🇸 United States

Lancé Sep 5, 2025 depuis Cape Canaveral Space Force Station

Loading…

Prochains Passages (prochaines 24 heures)

TLE

FraisSource: CelesTrak SupGP

Époque: Sep 14, 2026, 14:54 UTC

1 65513C 25198X   26257.62131944  .00014419  00000+0  42595-3 0  2570
2 65513  53.1567 109.3762 0001300  99.6219 254.2203 15.34388063    17

Suivez STARLINK-35019 en temps réel avec AllMySat

Download on the App Store